Helder met weinig lage bewolking en enkele cirrus
Helder met weinig lage bewolking en enkele cirrus
Gedeeltelijk bewolkt
Gedeeltelijk bewolkt
Gedeeltelijk bewolkt
Helder met enkele lage wolken
Gedeeltelijk bewolkt
(°C)
26°
26°
26°
26°
24°
24°
23°
23°
21°
21°
20°
20°
19°
19°
(°C)
19°
21°
20°
19°
19°
18°
17°
Z
ZZW
ZZW
ZW
WZW
WZW
WZW
(km/h)
30-44
20-36
17-35
13-30
9-24
7-14
7-11
(mm)
0
0
0
0
0
0
0
(%)
0
0
0
0
0
0
0

Zonverhoging

/ 30.7°
sun-icon
UV 6
06:48
21:14
Wassende gibbous maan (156°)
19:27
05:21

METAR voor Alcantarilla (LERI)

Tijd Voorwaarden Temperatuur/
Dauwpunt
Wind Zicht Weer Wolken Luchtdruk Wijzigen Ruw
VFR 26°C / 6°C 160º 16kt 9700m - Clouds and Visibility OK 1012 No Significant change LERI 211600Z 16016KT CAVOK 26/06 Q1012 NOSIG
VFR 27°C / 6°C 160º 16kt 9700m - Clouds and Visibility OK 1012 No Significant change LERI 211530Z 16016KT CAVOK 27/06 Q1012 NOSIG
VFR 27°C / 7°C 160º variable 120º to 190º 14kt 9700m - Clouds and Visibility OK 1012 No Significant change LERI 211500Z 16014KT 120V190 CAVOK 27/07 Q1012 NOSIG
VFR 27°C / 7°C 150º 16kt 9700m - Clouds and Visibility OK 1012 No Significant change LERI 211430Z 15016KT CAVOK 27/07 Q1012 NOSIG
VFR 27°C / 7°C 170º variable 120º to 230º 11kt Gust 21kt 9700m - Clouds and Visibility OK 1012 No Significant change LERI 211400Z 17011G21KT 120V230 CAVOK 27/07 Q1012 NOSIG
VFR 27°C / 8°C 170º variable 140º to 200º 13kt 9700m - Clouds and Visibility OK 1013 No Significant change LERI 211330Z 17013KT 140V200 CAVOK 27/08 Q1013 NOSIG
VFR 27°C / 3°C 3kt 9700m - Clouds and Visibility OK 1013 No Significant change LERI 211300Z VRB03KT CAVOK 27/03 Q1013 NOSIG
VFR 26°C / 3°C 2kt 9700m - Clouds and Visibility OK 1013 No Significant change LERI 211230Z VRB02KT CAVOK 26/03 Q1013 NOSIG
VFR 27°C / 4°C 30º variable 360º to 080º 8kt 9700m - Clouds and Visibility OK 1013 No Significant change LERI 211200Z 03008KT 360V080 CAVOK 27/04 Q1013 NOSIG
VFR 26°C / 3°C 360º variable 290º to 090º 5kt 9700m - Clouds and Visibility OK 1014 No Significant change LERI 211130Z 36005KT 290V090 CAVOK 26/03 Q1014 NOSIG
VFR 26°C / 4°C 3kt 9700m - Clouds and Visibility OK 1014 No Significant change LERI 211100Z VRB03KT CAVOK 26/04 Q1014 NOSIG
VFR 26°C / 4°C 4kt 9700m - Clouds and Visibility OK 1014 No Significant change LERI 211030Z VRB04KT CAVOK 26/04 Q1014 NOSIG
VFR 26°C / 5°C 10º variable 260º to 070º 4kt 9700m - Clouds and Visibility OK 1014 No Significant change LERI 211000Z 01004KT 260V070 CAVOK 26/05 Q1014 NOSIG
VFR 24°C / 6°C 2kt 9700m - Clouds and Visibility OK 1014 No Significant change LERI 210930Z VRB02KT CAVOK 24/06 Q1014 NOSIG
VFR 24°C / 6°C 130º variable 060º to 190º 4kt 9700m - Clouds and Visibility OK 1014 No Significant change LERI 210900Z 13004KT 060V190 CAVOK 24/06 Q1014 NOSIG
VFR 24°C / 6°C 2kt 9700m - Clouds and Visibility OK 1014 No Significant change LERI 210830Z VRB02KT CAVOK 24/06 Q1014 NOSIG
VFR 23°C / 6°C 2kt 9700m - Clouds and Visibility OK 1014 No Significant change LERI 210800Z VRB02KT CAVOK 23/06 Q1014 NOSIG
VFR 22°C / 6°C 2kt 9700m - Clouds and Visibility OK 1014 No Significant change LERI 210730Z VRB02KT CAVOK 22/06 Q1014 NOSIG
VFR 19°C / 5°C variable 0kt 9700m - Clouds and Visibility OK 1014 No Significant change LERI 210700Z 00000KT CAVOK 19/05 Q1014 NOSIG
VFR 17°C / 5°C 2kt 9700m - Clouds and Visibility OK 1014 No Significant change LERI 210630Z VRB02KT CAVOK 17/05 Q1014 NOSIG
VFR 15°C / 5°C 1kt 9700m - Clouds and Visibility OK 1014 No Significant change LERI 210600Z VRB01KT CAVOK 15/05 Q1014 NOSIG
VFR 13°C / 5°C 210º 3kt 9700m - Clouds and Visibility OK 1013 No Significant change LERI 210530Z 21003KT CAVOK 13/05 Q1013 NOSIG
VFR 13°C / 5°C 2kt 9700m - Clouds and Visibility OK 1013 No Significant change LERI 210500Z VRB02KT CAVOK 13/05 Q1013 NOSIG
VFR 24°C / 6°C 200º variable 150º to 250º 6kt 9700m - Few Clouds 2000ft 1009 No Significant change LERI 201800Z 20006KT 150V250 9999 FEW020 24/06 Q1009 NOSIG

VFR

26°C / 6°C

[Meer]
Wind 160º 16kt
Zicht 9700m
Weer -
Wolken Clouds and Visibility OK
Luchtdruk 1012
Wijzigen No Significant change
Ruw LERI 211600Z 16016KT CAVOK 26/06 Q1012 NOSIG

VFR

27°C / 6°C

[Meer]
Wind 160º 16kt
Zicht 9700m
Weer -
Wolken Clouds and Visibility OK
Luchtdruk 1012
Wijzigen No Significant change
Ruw LERI 211530Z 16016KT CAVOK 27/06 Q1012 NOSIG

VFR

27°C / 7°C

[Meer]
Wind 160º variable 120º to 190º 14kt
Zicht 9700m
Weer -
Wolken Clouds and Visibility OK
Luchtdruk 1012
Wijzigen No Significant change
Ruw LERI 211500Z 16014KT 120V190 CAVOK 27/07 Q1012 NOSIG

VFR

27°C / 7°C

[Meer]
Wind 150º 16kt
Zicht 9700m
Weer -
Wolken Clouds and Visibility OK
Luchtdruk 1012
Wijzigen No Significant change
Ruw LERI 211430Z 15016KT CAVOK 27/07 Q1012 NOSIG

VFR

27°C / 7°C

[Meer]
Wind 170º variable 120º to 230º 11kt Gust 21kt
Zicht 9700m
Weer -
Wolken Clouds and Visibility OK
Luchtdruk 1012
Wijzigen No Significant change
Ruw LERI 211400Z 17011G21KT 120V230 CAVOK 27/07 Q1012 NOSIG

VFR

27°C / 8°C

[Meer]
Wind 170º variable 140º to 200º 13kt
Zicht 9700m
Weer -
Wolken Clouds and Visibility OK
Luchtdruk 1013
Wijzigen No Significant change
Ruw LERI 211330Z 17013KT 140V200 CAVOK 27/08 Q1013 NOSIG

VFR

27°C / 3°C

[Meer]
Wind 3kt
Zicht 9700m
Weer -
Wolken Clouds and Visibility OK
Luchtdruk 1013
Wijzigen No Significant change
Ruw LERI 211300Z VRB03KT CAVOK 27/03 Q1013 NOSIG

VFR

26°C / 3°C

[Meer]
Wind 2kt
Zicht 9700m
Weer -
Wolken Clouds and Visibility OK
Luchtdruk 1013
Wijzigen No Significant change
Ruw LERI 211230Z VRB02KT CAVOK 26/03 Q1013 NOSIG

VFR

27°C / 4°C

[Meer]
Wind 30º variable 360º to 080º 8kt
Zicht 9700m
Weer -
Wolken Clouds and Visibility OK
Luchtdruk 1013
Wijzigen No Significant change
Ruw LERI 211200Z 03008KT 360V080 CAVOK 27/04 Q1013 NOSIG

VFR

26°C / 3°C

[Meer]
Wind 360º variable 290º to 090º 5kt
Zicht 9700m
Weer -
Wolken Clouds and Visibility OK
Luchtdruk 1014
Wijzigen No Significant change
Ruw LERI 211130Z 36005KT 290V090 CAVOK 26/03 Q1014 NOSIG

VFR

26°C / 4°C

[Meer]
Wind 3kt
Zicht 9700m
Weer -
Wolken Clouds and Visibility OK
Luchtdruk 1014
Wijzigen No Significant change
Ruw LERI 211100Z VRB03KT CAVOK 26/04 Q1014 NOSIG

VFR

26°C / 4°C

[Meer]
Wind 4kt
Zicht 9700m
Weer -
Wolken Clouds and Visibility OK
Luchtdruk 1014
Wijzigen No Significant change
Ruw LERI 211030Z VRB04KT CAVOK 26/04 Q1014 NOSIG

VFR

26°C / 5°C

[Meer]
Wind 10º variable 260º to 070º 4kt
Zicht 9700m
Weer -
Wolken Clouds and Visibility OK
Luchtdruk 1014
Wijzigen No Significant change
Ruw LERI 211000Z 01004KT 260V070 CAVOK 26/05 Q1014 NOSIG

VFR

24°C / 6°C

[Meer]
Wind 2kt
Zicht 9700m
Weer -
Wolken Clouds and Visibility OK
Luchtdruk 1014
Wijzigen No Significant change
Ruw LERI 210930Z VRB02KT CAVOK 24/06 Q1014 NOSIG

VFR

24°C / 6°C

[Meer]
Wind 130º variable 060º to 190º 4kt
Zicht 9700m
Weer -
Wolken Clouds and Visibility OK
Luchtdruk 1014
Wijzigen No Significant change
Ruw LERI 210900Z 13004KT 060V190 CAVOK 24/06 Q1014 NOSIG

VFR

24°C / 6°C

[Meer]
Wind 2kt
Zicht 9700m
Weer -
Wolken Clouds and Visibility OK
Luchtdruk 1014
Wijzigen No Significant change
Ruw LERI 210830Z VRB02KT CAVOK 24/06 Q1014 NOSIG

VFR

23°C / 6°C

[Meer]
Wind 2kt
Zicht 9700m
Weer -
Wolken Clouds and Visibility OK
Luchtdruk 1014
Wijzigen No Significant change
Ruw LERI 210800Z VRB02KT CAVOK 23/06 Q1014 NOSIG

VFR

22°C / 6°C

[Meer]
Wind 2kt
Zicht 9700m
Weer -
Wolken Clouds and Visibility OK
Luchtdruk 1014
Wijzigen No Significant change
Ruw LERI 210730Z VRB02KT CAVOK 22/06 Q1014 NOSIG

VFR

19°C / 5°C

[Meer]
Wind variable 0kt
Zicht 9700m
Weer -
Wolken Clouds and Visibility OK
Luchtdruk 1014
Wijzigen No Significant change
Ruw LERI 210700Z 00000KT CAVOK 19/05 Q1014 NOSIG

VFR

17°C / 5°C

[Meer]
Wind 2kt
Zicht 9700m
Weer -
Wolken Clouds and Visibility OK
Luchtdruk 1014
Wijzigen No Significant change
Ruw LERI 210630Z VRB02KT CAVOK 17/05 Q1014 NOSIG

VFR

15°C / 5°C

[Meer]
Wind 1kt
Zicht 9700m
Weer -
Wolken Clouds and Visibility OK
Luchtdruk 1014
Wijzigen No Significant change
Ruw LERI 210600Z VRB01KT CAVOK 15/05 Q1014 NOSIG

VFR

13°C / 5°C

[Meer]
Wind 210º 3kt
Zicht 9700m
Weer -
Wolken Clouds and Visibility OK
Luchtdruk 1013
Wijzigen No Significant change
Ruw LERI 210530Z 21003KT CAVOK 13/05 Q1013 NOSIG

VFR

13°C / 5°C

[Meer]
Wind 2kt
Zicht 9700m
Weer -
Wolken Clouds and Visibility OK
Luchtdruk 1013
Wijzigen No Significant change
Ruw LERI 210500Z VRB02KT CAVOK 13/05 Q1013 NOSIG

VFR

24°C / 6°C

[Meer]
Wind 200º variable 150º to 250º 6kt
Zicht 9700m
Weer -
Wolken Few Clouds 2000ft
Luchtdruk 1009
Wijzigen No Significant change
Ruw LERI 201800Z 20006KT 150V250 9999 FEW020 24/06 Q1009 NOSIG

TAF voor Alcantarilla (LERI)

From till


Maximum Temperature 27ºC on . Minimum Temperature 17ºC on .
From till Wind 3kt. Visibility 9700m. Few Clouds 4000ft.
Becoming from till
Becoming from till

Ruw: TAF LERI 211100Z 2112/2212 VRB03KT 9999 FEW040 TX27/2114Z TN17/2206Z BECMG 2112/2114 20012KT BECMG 2119/2121 VRB03KT

Radar en neerslag nowcast voor Alcantarilla

Motregen
Licht
Matig
Zwaar
Zeer zwaar
Hagel

De locatiemarkering is op Alcantarilla geplaatst . Deze animatie toont de neerslagradar voor het geselecteerde tijdvak, alsmede een 2h voorspelling. Oranje kruisjes geven de bliksem aan. Gegevens verstrekt door nowcast.de (beschikbaar in de VS, Europa en Australië). Motregen of lichte sneeuwval kan onzichtbaar zijn voor de radar. De neerslagintensiteit heeft een kleurcode, gaande van turkoois tot rood.

Huidige satelliet- en regenbeelden voor Alcantarilla, Spanje

De locatiemarkering is op Alcantarilla geplaatst. [Meer]

Het realtime satellietbeeld combineert zichtbaar licht overdag met infraroodstraling 's nachts. 's Nachts is het beeld niet donker, omdat infraroodstraling temperatuurverschillen kan waarnemen. Helaas zijn lage wolken en mist moeilijk te onderscheiden van grondtemperaturen en kunnen dus 's nachts bijna onzichtbaar zijn. Meteosat-satellietbeelden voor Europa worden elke 5 minuten in real time bijgewerkt. De beelden van GOES-16/GOES-17 (Noord- en Zuid-Amerika) en Himawari (Azië) worden om de 10 minuten bijgewerkt.

De neerslag wordt geschat met behulp van radar en satellieten. Neerslagschattingen van satellieten zijn 's nachts minder nauwkeurig dan overdag.

© 2024 meteoblue, NOAA Satellites GOES-16 and EUMETSAT. Bliksemgegevens verstrekt door nowcast.

Terug naar boven
×
Hallo daar,
Het lijkt erop dat u een advertentieblokker gebruikt.

Reclame is van essentieel belang om onze gratis website te onderhouden met unieke details en nauwkeurigheid.

Gelieve www.meteoblue.com te whitelisten op uw ad blocker of overweeg één van onze producten:

Heeft u al een abonnement?
Dan kunt u inloggen.